Location: Cabañas de la Sagra
(40.0061°N, 3.9456°W)
Time: 23:44:39
(UTC+00:00)

Daily predictions for brighter satellites

Satellite Brightness Start Highest point End
(mag) Time Altitude Azimuth Time Altitude Azimuth Time Altitude Azimuth
NOSS 3-2 (C) 4.3 20:00:37 10° NNW 20:08:17 75° NE 20:17:18 10° SE
Cosmos 1624 Rocket 4.3 20:08:02 10° NNW 20:13:18 73° WSW 20:18:33 10° S
Cosmos 1371 Rocket 4.4 20:09:42 10° NNW 20:14:58 70° WSW 20:20:09 10° S
ADEOS 3.7 20:10:15 10° SSE 20:15:27 84° WSW 20:20:41 10° NNW
Helios 1B rocket 2.9 20:12:58 10° SE 20:16:22 36° ENE 20:19:46 10° N
Cosmos 2056 Rocket 3.9 20:11:47 10° NNW 20:16:53 65° WSW 20:21:54 10° S
CZ-4B R/B 3.1 20:14:53 10° SE 20:18:14 40° ENE 20:21:30 10° N
Exosat Rocket 4.4 20:14:02 10° NNW 20:19:31 70° WSW 20:26:58 10° S
Cosmos 1743 Rocket 4.0 20:15:55 10° N 20:20:03 43° ENE 20:24:08 10° SSE
Resurs 01 Rocket 3.2 20:17:11 10° SSW 20:21:10 34° W 20:25:11 10° NNW
Cosmos 1470 2.4 20:17:50 10° N 20:21:23 77° E 20:24:53 10° S
CZ-2C R/B 3.9 20:18:44 10° SSW 20:21:53 37° W 20:25:04 10° NNW
NOSS 2-2 (E) 4.2 20:18:14 10° NNW 20:22:26 56° NE 20:28:18 10° SE
ERS-1 Rocket 3.8 20:18:03 10° SE 20:22:34 35° ENE 20:27:06 10° N
Cosmos 1605 Rocket 4.2 20:18:37 10° N 20:24:37 53° E 20:30:32 10° SSE
Cosmos 2219 Rocket 3.4 20:20:34 10° NW 20:25:46 41° WSW 20:30:56 10° S
USA 186 1.9 20:24:41 10° S 20:27:25 58° W 20:30:10 10° NNW
CSL-04 Rocket 3.9 20:22:15 10° S 20:27:30 72° WSW 20:32:47 10° NNW
CSL-04 Debris 4.5 20:23:46 10° S 20:29:11 71° WSW 20:34:36 10° NNW
Cosmos 1066 Rocket 4.3 20:27:30 10° S 20:33:20 86° E 20:39:13 10° N
Cosmos 2237 Rocket 2.9 20:38:38 10° N 20:44:01 42° ENE 20:48:43 13° SE
USA 305 2.5 20:43:52 10° SW 20:47:49 68° SE 20:51:31 10° NE
USA 215 3.6 20:42:51 10° SSE 20:49:15 61° SW 20:55:43 10° NW
Cosmos 1666 Rocket 4.2 20:47:29 10° N 20:51:41 40° ENE 20:54:55 16° SE
Delta 2 Rocket 4.3 20:48:18 10° WSW 20:51:49 30° SSW 20:54:23 16° SE
Meteor 2-10 Rocket 4.1 20:46:21 10° N 20:51:49 46° ENE 20:56:11 15° SE
Okean-O 2.7 20:50:15 12° SSE 20:54:11 65° ENE 20:58:32 10° N
MOS 1 4.4 20:50:33 10° SSE 20:56:13 81° WSW 21:01:55 10° NNW
Cosmos 1110 Rocket 4.0 20:53:17 10° NNW 20:58:32 82° WSW 21:03:14 13° SSE
NOSS 3-4 (A) 3.4 20:53:37 10° SW 20:58:54 75° NW 21:04:38 10° NNE
NOSS 3-4 (C) 3.3 20:53:44 10° SW 20:59:00 76° NW 21:04:44 10° NNE
Lacrosse 4 Rocket 3.3 20:58:21 10° N 21:01:23 19° NE 21:04:06 11° E
Cosmos 1633 Rocket 3.6 20:57:43 10° N 21:01:49 41° ENE 21:04:31 19° SE
Cosmos 1818 3.5 20:56:40 10° SSW 21:02:01 65° ESE 21:07:26 10° NE
Cosmos 1331 Rocket 4.0 20:57:26 10° NNW 21:02:35 81° WSW 21:07:03 14° SSE
COSMOS 2428 3.3 20:57:55 10° NNW 21:03:30 55° WSW 21:09:01 10° S
SAR-Lupe-2 4.4 21:04:36 20° SE 21:06:29 35° ENE 21:09:47 10° N
Cosmos 1328 Rocket 3.5 21:05:52 10° S 21:10:12 74° E 21:14:36 10° NNE
Cosmos 2297 Rocket 2.7 21:06:02 10° SW 21:11:38 64° WNW 21:17:16 10° NNE
Cosmos 614 Rocket 3.9 21:06:32 10° SSW 21:11:43 85° ESE 21:16:53 10° NNE
Cosmos 1455 1.8 21:10:09 10° N 21:12:46 43° E 21:13:31 33° SE
Ariane Rocket 3.8 21:09:58 18° SE 21:13:03 36° ENE 21:17:39 10° N
ARIANE 6 FM1 Upper Stage 2.7 21:09:39 10° NNW 21:13:48 74° NE 21:16:17 24° SE
Meteor 2-19 Rocket 4.4 21:08:31 10° S 21:14:34 86° W 21:20:40 10° N
SPOT 3 Rocket 4.1 21:14:36 20° SE 21:17:44 43° ENE 21:22:35 10° N
Cosmos 1470 Rocket 4.0 21:18:13 10° N 21:22:22 44° ENE 21:24:22 26° SE
NOSS 0 Rocket 4.4 21:16:40 10° NNW 21:22:45 57° WSW 21:27:43 15° S
Cosmos 1758 3.6 21:21:26 10° N 21:25:02 44° E 21:26:20 31° SE
Meteor 1-13 Rocket 4.4 21:21:24 15° S 21:26:17 62° E 21:32:05 10° NNE
Cosmos 1302 Rocket 4.0 21:23:42 10° NNW 21:28:58 75° ENE 21:32:02 26° SSE
ATLAS CENTAUR R/B 2.1 21:26:03 10° NNW 21:29:36 36° NE 21:31:05 25° E
Helios 1A 4.3 21:28:55 10° N 21:32:34 37° WNW 21:36:11 10° SW
PSLV R/B 4.0 21:33:05 34° ESE 21:33:48 40° ENE 21:36:55 10° N
Cosmos 2173 Rocket 4.0 21:27:43 10° N 21:33:52 66° E 21:37:34 25° SSE
Cosmos 1452 Rocket 4.3 21:31:15 10° NNW 21:36:15 45° WSW 21:40:08 16° S
Terra 2.5 21:32:51 15° S 21:36:33 48° W 21:41:07 10° NNW
Cosmos 1727 Rocket 4.2 21:30:38 10° SSW 21:36:46 72° W 21:42:57 10° N
Cosmos 1515 Rocket 3.6 21:34:51 28° SSE 21:37:01 60° E 21:41:23 10° NNE
USA 276 2.1 21:35:01 10° NW 21:36:45 43° N 21:36:45 43° N
IRS-1C Rocket 4.0 21:35:12 25° SSE 21:38:22 84° ENE 21:43:39 10° NNW
SL-16 R/B 3.2 21:33:38 10° N 21:38:45 34° ENE 21:41:38 21° ESE
Cosmos 2227 Rocket 2.2 21:34:32 10° SSW 21:40:10 81° WNW 21:45:51 10° NNE
RESURS DK-1 2.1 21:38:46 20° SSW 21:41:28 76° ESE 21:45:28 10° NNE
Cosmos 2263 Rocket 2.3 21:41:20 22° S 21:44:46 54° ESE 21:50:18 10° NNE
COSMOS 2455 2.8 21:41:12 10° NNW 21:47:16 86° WSW 21:50:27 30° SSE
Okean O Rocket 3.6 21:44:31 10° SSW 21:47:53 22° W 21:51:16 10° NW
Cosmos 2100 Rocket 3.9 21:43:27 10° N 21:49:38 89° W 21:53:20 26° S
Spot 2 Rocket 4.0 21:47:54 21° S 21:51:06 56° W 21:56:06 10° NNW
Cosmos 1980 4.4 21:48:48 10° NW 21:54:12 48° WSW 21:57:28 23° S
Cosmos 1437 Rocket 2.3 21:55:31 52° S 21:56:19 89° ESE 21:59:54 10° N
Cosmos 1725 Rocket 4.1 21:52:43 10° N 21:59:00 65° E 22:01:55 33° SSE
Cosmos 921 Rocket 4.4 21:55:23 10° SW 21:59:17 36° WNW 22:03:18 10° N
Cosmos 2219 3.1 22:02:24 27° S 22:05:36 70° ESE 22:11:20 10° NNE
Geosat 3.9 22:06:39 10° NNE 22:11:41 87° ESE 22:14:36 26° SSW
USA 290 3.2 22:14:12 38° NE 22:14:12 38° NE 22:16:25 10° NNE
COBE Rocket 3.9 22:08:52 10° NNE 22:13:52 66° E 22:15:12 46° SSE
Cosmos 2082 3.7 22:12:58 38° S 22:15:05 62° ESE 22:20:44 10° NNE
Cosmos 2123 Rocket 4.2 22:11:21 21° SSW 22:15:42 71° W 22:21:58 10° N
ARIANE 5 R/B 4.3 22:20:49 20° E 22:21:34 20° ENE 22:24:50 10° NNE
SL-4 R/B 1.8 22:21:16 49° SW 22:22:20 81° SE 22:26:25 10° NE
Cosmos 2237 Rocket 3.7 22:23:08 10° NW 22:27:48 27° WSW 22:30:32 19° SW
Cosmos 1140 Rocket 3.4 22:26:48 52° SSE 22:27:49 65° ESE 22:32:54 10° NNE
Cosmos 1953 2.4 22:27:17 10° N 22:30:44 59° ENE 22:30:44 59° ENE
Cosmos 1802 Rocket 4.4 22:29:26 10° NNW 22:35:43 58° W 22:38:44 31° SSW
Cosmos 2061 Rocket 3.9 22:31:17 10° N 22:37:35 83° E 22:39:36 46° SSE
Lacrosse 4 Rocket 2.1 22:35:30 10° NW 22:39:30 43° WSW 22:39:42 42° WSW
Cosmos 1023 Rocket 4.3 22:40:15 50° SSW 22:41:37 87° WNW 22:46:43 10° NNE
Cosmos 407 Rocket 3.5 22:50:55 56° ESE 22:51:01 56° ESE 22:56:02 10° NNE
CZ-4C R/B 4.1 22:50:34 10° NNE 22:52:42 39° NNE 22:52:42 39° NNE
Cosmos 2228 Rocket 3.5 22:54:32 50° ENE 22:54:32 50° ENE 22:58:30 10° NNE
Cosmos 1844 Rocket 3.3 22:54:47 39° E 22:54:47 39° E 22:59:51 10° NE
IRIDIUM 104 4.2 22:55:46 66° SSE 22:56:29 82° E 23:01:43 10° N
Cosmos 1447 Rocket 4.4 22:55:55 48° SSW 22:57:49 85° W 23:04:02 10° N
Cosmos 2251 Rocket 4.1 22:59:05 41° E 22:59:05 41° E 23:03:51 10° NNE
Cosmos 1844 4.4 22:59:50 37° E 22:59:50 37° E 23:04:32 10° NE
GP-B 4.0 22:56:21 10° NNW 23:00:28 41° W 23:01:12 37° WSW
Cosmos 1707 Rocket 3.6 23:05:00 70° NE 23:05:00 70° NE 23:08:56 10° N
ATLAS CENTAUR R/B 3.4 23:02:50 10° WNW 23:04:28 16° W 23:04:28 16° W
USA 234 4.5 23:00:07 10° ENE 23:03:50 24° ESE 23:03:50 24° ESE
IRIDIUM 114 4.2 23:04:53 66° SSW 23:05:38 82° W 23:10:53 10° N
Cosmos 2084 Rocket 4.4 23:01:53 10° NW 23:05:01 36° W 23:05:01 36° W
Landsat 5 4.1 23:06:32 10° NNE 23:09:56 48° ENE 23:09:56 48° ENE
Cosmos 540 Rocket 4.3 23:09:04 10° N 23:13:50 39° ENE 23:14:32 37° E
ALOS 2 3.5 23:14:27 37° ENE 23:14:27 37° ENE 23:18:25 10° N
IRIDIUM 103 4.4 23:14:01 58° SW 23:14:48 67° W 23:20:01 10° N
Cosmos 1733 Rocket 3.2 23:17:59 10° N 23:21:58 71° NW 23:21:58 71° NW
SL-16 R/B 3.2 23:17:44 10° NW 23:22:46 34° WSW 23:23:29 32° WSW
ATLAS 2AS CENTAUR R/B 3.4 23:25:06 37° ESE 23:25:09 37° ESE 23:31:27 10° NE
BREEZE-M DEB (TANK) 4.5 23:12:26 10° SW 23:28:12 33° E 23:30:17 10° ENE
Cosmos 2263 Rocket 4.3 23:24:34 10° WSW 23:29:00 23° NW 23:33:29 10° N
Cosmos 1464 Rocket 4.0 23:23:41 10° N 23:29:56 67° E 23:31:00 57° SE
CZ-2C R/B 4.2 23:29:18 10° N 23:33:42 51° WNW 23:34:03 49° W
Cosmos 2034 Rocket 4.4 23:30:46 10° N 23:36:48 50° ENE 23:37:59 44° ESE
SeaSat 1 3.9 23:37:33 25° E 23:38:56 29° NE 23:43:08 10° N
ASTEX 1 4.1 23:36:27 10° N 23:41:09 45° WNW 23:41:43 43° W
Cosmos 1908 Rocket 4.3 23:38:20 10° N 23:42:02 46° NE 23:42:02 46° NE
Cosmos 1943 3.1 23:38:51 10° NNW 23:44:31 69° WSW 23:44:50 67° SW
Aureole 3 Rocket 4.0 23:41:22 10° NNW 23:43:25 37° NNW 23:43:25 37° NNW
MetOp-A 4.4 23:48:13 47° W 23:48:13 47° W 23:52:28 10° NNW
Cosmos 1271 Rocket 4.1 23:50:20 35° N 23:50:20 35° N 23:52:33 10° N
SL-12 R/B(2) 4.3 23:48:04 46° SE 23:49:28 50° ESE 23:58:07 10° NE
Cosmos 1763 Rocket 3.4 23:47:22 10° NNW 23:52:18 73° W 23:52:18 73° W
Okean 1-7 4.0 23:56:02 39° WNW 23:56:02 39° WNW 23:59:28 10° N
